This is the latest recevied weather packets stored in our database for station/object KD8OZS. If no packets are shown the sender has not sent any weather packets the latest 10 day(s).
| Time | Temp. | Humidity | Pressure | Rain* | Wind** | Luminosity | Snow |
|---|---|---|---|---|---|---|---|
| 1777149101 | 13.89° C | 87% | 1005 hPa | 0 mm | - | 68 W/m² | - |
| 1777148795 | 14.44° C | 86% | 1004.5 hPa | 0 mm | - | 70 W/m² | - |
| 1777148492 | 14.44° C | 86% | 1004.6 hPa | 0 mm | - | 96 W/m² | - |
| 1777148188 | 14.44° C | 86% | 1004.7 hPa | 0 mm | - | 154 W/m² | - |
| 1777147884 | 14.44° C | 86% | 1004.5 hPa | 0 mm | - | 213 W/m² | - |
| 1777147581 | 15° C | 85% | 1004.6 hPa | 0 mm | - | 167 W/m² | - |
| 1777147276 | 15° C | 85% | 1004.5 hPa | 0 mm | - | 162 W/m² | - |
| 1777146971 | 15° C | 85% | 1004.6 hPa | 0 mm | - | 114 W/m² | - |
| 1777146668 | 15° C | 85% | 1004.7 hPa | 0 mm | - | 118 W/m² | - |
| 1777146363 | 15.56° C | 84% | 1004.3 hPa | 0 mm | - | 111 W/m² | - |
| 1777146060 | 15.56° C | 84% | 1004.5 hPa | 0 mm | - | 169 W/m² | - |
| 1777145756 | 15.56° C | 83% | 1004.3 hPa | 0 mm | - | 178 W/m² | - |
| 1777145452 | 15.56° C | 83% | 1004.5 hPa | 0 mm | - | 171 W/m² | - |
| 1777145147 | 15.56° C | 84% | 1004.3 hPa | 0 mm | - | 198 W/m² | - |
| 1777144843 | 15.56° C | 84% | 1004.5 hPa | 0 mm | - | 168 W/m² | - |
| 1777144541 | 16.67° C | 81% | 1004.5 hPa | 0 mm | - | 146 W/m² | - |
| 1777144238 | 16.11° C | 82% | 1004.3 hPa | 0 mm | - | 223 W/m² | - |
| 1777143934 | 15.56° C | 83% | 1004.2 hPa | 0 mm | - | 473 W/m² | - |
| 1777143631 | 16.11° C | 83% | 1004 hPa | 0 mm | - | 164 W/m² | - |
| 1777143327 | 16.11° C | 83% | 1004.2 hPa | 0 mm | - | 223 W/m² | - |
| 1777143022 | 16.11° C | 82% | 1004.2 hPa | 0 mm | - | 248 W/m² | - |
| 1777142718 | 16.67° C | 81% | 1004.1 hPa | 0 mm | - | 250 W/m² | - |
| 1777142416 | 16.11° C | 83% | 1004.1 hPa | 0 mm | - | 258 W/m² | - |
| 1777142110 | 16.11° C | 83% | 1004.3 hPa | 0 mm | - | 311 W/m² | - |
| 1777141806 | 16.11° C | 81% | 1004.2 hPa | 0 mm | - | 288 W/m² | - |
* Rain latest hour (hover to see other rain measurements)
** Current wind speed in m/s (hover to see current wind gust speed)